FENGYUN 1C DEB, 31163

Orbit data source: Space-Track

FENGYUN 1C DEB, 31163 is space debris in SSO originally from a launch on Mon, 10 May 1999 UTC launched from the Taiyaun Space Center, China (TSC). Fengyun 1C debris stems from the Chinese weather satellite Fengyun-1C, which was intentionally destroyed by a Chinese anti-satellite missile in 2007. This event dramatically increased the amount of space debris, with thousands of trackable fragments posing hazards to satellites and human spaceflight. The Fengyun 1C debris cloud has become a focal point in discussions about space sustainability and the need for international regulations to prevent the creation of new debris.

Loading next visibility...
Identifier
31163, 1999-025BHR
Orbit
SSO
Country
Flag of CNCN / PRC
Related business
Manufacturer
Unknown
Mission
Spacecraft
Bus & Motor
Unknown
Mass
Unknown
Launch date (UTC)
1999-05-10 (27 years ago)
Launch vehicle
Unknown
Launch site
Taiyaun Space Center, China (TSC)
Object type
Payload
Rocket body
Debris
Shape & HBR
Unknown shape, 0.1 m
Radar Cross Section
Small (<0.1 m²)

Expand to show TLE details & history
Last TLE update: 1 day ago

TLE from 1 day ago
0 FENGYUN 1C DEB
1 31163U 99025BHR 26237.43369118  .00000780  00000-0  29967-3 0  9995
2 31163  98.9494 118.7009 0052694 227.0009 132.6752 14.32667457684022
Epoch: 2026-08-25T10:24Z
TLE epoch observation values (Epoch: 2026-08-25T10:24:30.917Z)
Latitude
-0.00001°
Longitude
-11.12902°
Altitude
811.442 km
Speed
7.434 km/s
True Right ascension
07h 54m 48s
True Declination
0° 00' 00"
Sunlit
Object was in daylight at epoch
Visualization orbit readout
Latitude
Unknown
Longitude
Unknown
Altitude
Unknown
Speed
Unknown
Apparent Right ascension
Unknown
Apparent Declination
Unknown
Sunlit
N/A
Visualization observer readout
Local Sidereal Time
01:46:38
Azimuth
Unknown
Elevation
Unknown
Doppler factor
Unknown
Orbital elements
Apogee altitude
817.701 km
Perigee altitude
742.263 km
Semi-major axis
7,158.119 km
Eccentricity
0.00527
Inclination
98.9494°
RAAN
118.7009°
Arg. of periapsis
227.0009°
True anomaly
133.11716°
Mean anomaly
132.6752°
Eccentric anomaly
132.89638°
Mean motion
3.58381 °/min
Orbital period
100.45 mins
BSTAR
0.00029967
Loading maneuver chart data...
Computing Atmospheric mass density...
Loading historical data...
Loading historical data...
Loading historical data...
Loading historical data...
Loading historical data...
Loading historical data...
Loading historical data...

Documentation

Showing up to 5 results
|